SPOT 7

Last updated on Mon Jun 22 2026 00:02:51 GMT+0000 (Coordinated Universal Time)

1 40053U 14034A 26172.49638149 .00000684 00000+0 14881-3 0 9998 2 40053 98.0622 234.8775 0001282 95.4962 264.6386 14.60962750637769
UTC large
Height (km)
Speed (km/s)
/
Latitude / Longitude
Inclination (degrees)
Orbital Period (minutes)
Azimuth
Elevation
Range (km)
Doppler Factor

Next 0 passes for location: London (51.5072 / 0.1276)

No passes found over London.
SPOT 7